Oceana NAS, VA

12:27 AM EDT on March 29, 2017 (GMT -0400)
Oceana Naval Air Station

Weather History for KNTU - July, 2013

Change the Weather History Date:

Tuesday, July 16, 2013

  Actual Average Record
Temperature  
Mean Temperature 84 °F -  
Max Temperature 93 °F 83 °F 95 °F (1997)
Min Temperature 75 °F 68 °F 63 °F (1999)
Cooling Degree Days 19    
Growing Degree Days 34 (Base 50)    
Moisture  
Dew Point 73 °F    
Average Humidity 72    
Maximum Humidity 88    
Minimum Humidity 50    
Precipitation  
Precipitation 0.00 in - - ()
Sea Level Pressure  
Sea Level Pressure 30.19 in    
Wind  
Wind Speed 7 mph (WNW)    
Max Wind Speed 12 mph    
Max Gust Speed -    
Visibility 10 miles    
Events Thunderstorm    
Averages and records for this station are not official NWS values.
T = Trace of Precipitation, MM = Missing Value Source: NWS Daily Summary

Daily Weather History Graph

Daily Weather History Graph

Search for Another Location

Airport or City:

Trip Planner

Search our weather history database for the weather conditions in past years. The results will help you decide how hot, cold, wet, or windy it might be!

Date:

Astronomy

Jul. 16, 2013 Rise Set
Actual Time 5:57 AM EDT 8:22 PM EDT
Civil Twilight 5:27 AM EDT 8:52 PM EDT
Nautical Twilight 4:50 AM EDT 9:28 PM EDT
Astronomical Twilight 4:10 AM EDT 10:09 PM EDT
Moon 2:05 PM EDT (7/16) 12:21 AM EDT (7/16)
Length of Visible Light 15h 24m
Length of Day
14h 24m
First Quarter, 56% of the Moon is Illuminated
Jul 16
First Quarter
Jul 22
Full
Jul 29
Last Quarter
Aug 6
New
Aug 14
First Quarter

Hourly Weather History & Observations

Time (EDT) Temp. Heat Index Dew Point Humidity Pressure Visibility Wind Dir Wind Speed Gust Speed Precip Events Conditions
12:56 AM 78.1 °F - 73.9 °F 87% 30.23 in 10.0 mi WSW 5.8 mph - N/A   Clear
1:56 AM 77.0 °F - 73.0 °F 88% 30.22 in 10.0 mi WSW 6.9 mph - N/A   Clear
2:56 AM 77.0 °F - 72.0 °F 84% 30.22 in 10.0 mi WSW 8.1 mph - N/A   Clear
3:56 AM 77.0 °F - 72.0 °F 84% 30.21 in 10.0 mi WSW 8.1 mph - N/A   Mostly Cloudy
4:56 AM 75.9 °F - 71.1 °F 85% 30.21 in 10.0 mi WSW 6.9 mph - N/A   Scattered Clouds
5:56 AM 75.9 °F - 71.1 °F 85% 30.23 in 10.0 mi WSW 6.9 mph - N/A   Scattered Clouds
6:56 AM 75.9 °F - 71.1 °F 85% 30.22 in 10.0 mi West 8.1 mph - N/A   Scattered Clouds
7:56 AM 79.0 °F - 72.0 °F 79% 30.21 in 10.0 mi West 6.9 mph - N/A   Mostly Cloudy
8:56 AM 84.0 °F 90.2 °F 73.0 °F 69% 30.22 in 10.0 mi WNW 6.9 mph - N/A   Mostly Cloudy
9:56 AM 84.9 °F 91.4 °F 73.0 °F 67% 30.21 in 10.0 mi West 3.5 mph - N/A   Mostly Cloudy
10:56 AM 90.0 °F 99.0 °F 73.9 °F 59% 30.21 in 10.0 mi North 6.9 mph - N/A   Mostly Cloudy
11:56 AM 91.0 °F 100.4 °F 73.9 °F 57% 30.20 in 10.0 mi NW 9.2 mph - N/A   Scattered Clouds
12:56 PM 91.9 °F 101.3 °F 73.9 °F 55% 30.19 in 10.0 mi NNW 9.2 mph - N/A   Scattered Clouds
1:56 PM 93.0 °F 100.7 °F 72.0 °F 50% 30.18 in 10.0 mi NNW 9.2 mph - N/A   Scattered Clouds
2:56 PM 93.0 °F 103.2 °F 73.9 °F 54% 30.17 in 10.0 mi NNW 11.5 mph - N/A   Scattered Clouds
3:56 PM 93.0 °F 104.6 °F 75.0 °F 56% 30.16 in 10.0 mi North 9.2 mph - N/A   Scattered Clouds
4:56 PM 91.9 °F 103.9 °F 75.9 °F 59% 30.15 in 10.0 mi NNW 10.4 mph - N/A   Mostly Cloudy
5:56 PM 91.0 °F 98.2 °F 72.0 °F 53% 30.15 in 10.0 mi NNW 11.5 mph - N/A   Scattered Clouds
6:56 PM 89.1 °F 94.1 °F 70.0 °F 53% 30.15 in 10.0 mi North 11.5 mph - N/A   Mostly Cloudy
7:56 PM 82.9 °F 90.8 °F 75.9 °F 79% 30.17 in 10.0 mi East 5.8 mph - N/A   Mostly Cloudy
8:15 PM 80.6 °F 86.2 °F 75.2 °F 84% 30.17 in 10.0 mi ENE 5.8 mph - N/A Thunderstorm Thunderstorm
8:56 PM 81.0 °F 85.2 °F 72.0 °F 74% 30.18 in 10.0 mi East 4.6 mph - N/A   Mostly Cloudy
9:56 PM 80.1 °F 84.2 °F 73.0 °F 79% 30.20 in 10.0 mi Calm Calm - N/A   Mostly Cloudy
10:56 PM 78.1 °F - 73.0 °F 84% 30.20 in 10.0 mi WSW 5.8 mph - N/A   Mostly Cloudy
11:56 PM 79.0 °F - 73.0 °F 82% 30.19 in 10.0 mi Calm Calm - N/A   Mostly Cloudy